Regional Weather Roundup
Issued by NWS Sterling, VA

Home | Current Version | Previous Version | Text Only | Print | Product List | Glossary Off
Versions: 1 2 3 4 5 6 7 8 9 10 11 12 13 14 15 16 17 18 19 20 21 22 23 24 25 26 27 28 29 30 31 32 33 34 35 36 37 38 39 40 41 42 43 44 45 46 47 48 49 50

000
ASUS41 KLWX 252311
RWRLWX

REGIONAL WEATHER ROUNDUP
NATIONAL WEATHER SERVICE BALTIMORE MD/WASHINGTON DC
700 PM EDT SAT APR 25 2015

Note: "FAIR" indicates few or no clouds below 12,000 feet
with no significant weather and/or obstructions to visibility.
 TC=TEMPERATURE CELSIUS

 * =Non NWS site. Station does not report precipitation (e.g. rain,
    snow, etc.), thunder, or fog.

DCZ001-MDZ009-015-VAZ040>042-051-053>054-260000-
WASHINGTON METRO

CITY           SKY/WX    TMP DP  RH WIND       PRES   REMARKS
WASHINGTON NAT LGT RAIN  47  39  74 SW7       29.79S
DULLES         LGT RAIN  42  38  85 S5        29.77F
ANDREWS AFB    LGT RAIN  45  41  86 SW3       29.77S
FT BELVOIR     LGT RAIN  45  41  86 W2        29.78F FOG
QUANTICO       LGT RAIN  45  40  82 NW7       29.79F
COLLEGE PARK*  CLOUDY    46  36  66 S5        29.78S
LEESBURG*      LGT RAIN  43  39  87 SW5       29.77F
MANASSAS*      CLOUDY    43  43 100 S6        29.78F
GAITHERSBURG*  CLOUDY    46  28  49 SW7       29.80S

$$

MDZ006>007-011-014-260000-
BALTIMORE METRO

CITY           SKY/WX    TMP DP  RH WIND       PRES   REMARKS
BWI AIRPORT    CLOUDY    50  30  46 S5        29.75F
MD SCIENCE CTR   N/A     52  27  38 MISG      29.76F
MARTIN STATE   CLOUDY    52  37  58 S6        29.77F
ANNAPOLIS      LGT RAIN  49  36  61 S12       29.77S
FORT MEADE*    CLOUDY    48  34  57 SW8       29.79R

$$

MDZ012-015-019>023-260000-
MARYLAND EASTERN SHORE

CITY           SKY/WX    TMP DP  RH WIND       PRES   REMARKS
OCEAN CITY     LGT RAIN  47  39  74 SW7       29.79S
SALISBURY      LGT RAIN  45  41  86 SW3       29.78F FOG
BAY BRIDGE AP*   N/A    N/A N/A N/A S6        29.78R
CAMBRIDGE*     CLOUDY    48  43  81 CALM      29.79R
EASTON*        LGT RAIN  48  43  81 SW8       29.82S

$$

MDZ017>025-260000-
SOUTHERN MARYLAND

CITY           SKY/WX    TMP DP  RH WIND       PRES   REMARKS
PATUXENT RIVER LGT RAIN  45  42  89 S3        29.79S FOG
ST INIGOES     LGT RAIN  45  42  89 CALM      29.78F
LEONARDTOWN*   CLOUDY    45  41  87 CALM      29.80S

$$

MDZ003>005-260000-
NORTH CENTRAL MARYLAND

CITY           SKY/WX    TMP DP  RH WIND       PRES   REMARKS
FREDERICK*     MOCLDY    50  19  29 SW8       29.77
HAGERSTOWN APT CLOUDY    50  27  40 S8        29.72F
WESTMINSTER*   CLOUDY    50  28  43 SW7       29.74S

$$

MDZ501>502-260000-
WESTERN MARYLAND

CITY           SKY/WX    TMP DP  RH WIND       PRES   REMARKS
OAKLAND*       CLOUDY    34 N/A N/A SE10      29.67F WCI  26
CUMBERLAND*    CLOUDY    46  37  71 SW5       29.77S

$$

VAZ025>031-260000-
SHENANDOAH VALLEY

CITY           SKY/WX    TMP DP  RH WIND       PRES   REMARKS
WINCHESTER*    LGT RAIN  43  32  65 S3        29.75F
FRONT ROYAL*   CLOUDY    41  37  87 CALM      29.74S
LURAY*         RAIN      43  43 100 CALM      29.74F
NEW MARKET*    CLOUDY    42  39  90 SW3       29.73F
STAUNTON*      RAIN      41  38  89 CALM      29.74F
WAYNESBORO*    CLOUDY    38  37  97 E8        29.72F

$$

WVZ021-048>050-054>055-260000-
EASTERN WEST VIRGINIA PANHANDLE

CITY           SKY/WX    TMP DP  RH WIND       PRES   REMARKS
MARTINSBURG    LGT RAIN  44  31  60 S5        29.75F
PETERSBURG*    LGT RAIN  41  35  78 CALM      29.73F

$$

VAZ036>039-050-260000-
CENTRAL FOOTHILLS

CITY           SKY/WX    TMP DP  RH WIND       PRES   REMARKS
CHARLOTTESVILL LGT RAIN  41  38  89 NE3       29.74F FOG
CULPEPER*      LGT RAIN  43  41  93 CALM      29.78F
ORANGE*        LGT RAIN  43  41  93 SW3       29.79S
GORDONSVILLE*  CLOUDY    41  39  93 CALM      29.75F FOG
WARRENTON*     LGT RAIN  42  41  95 CALM      29.77F

$$

VAZ055>057-260000-
NORTH AND CENTRAL PIEDMONT

CITY           SKY/WX    TMP DP  RH WIND       PRES   REMARKS
FREDERICKSBRG* LGT RAIN  44  44  99 CALM      29.77F
STAFFORD*      RAIN      42  32  68 CALM      29.82F

$$

NCZ024-NYZ072-PAZ021-071-VAZ022-071-260000-
OTHER REGIONAL OBSERVATIONS

CITY           SKY/WX    TMP DP  RH WIND       PRES   REMARKS
NEW YORK CITY  PTCLDY    59  20  22 VRB6      29.71F
PHILADELPHIA   CLOUDY    56  25  30 SW12      29.74S
PITTSBURGH     CLOUDY    52  14  22 NE7       29.69F
ROANOKE        CLOUDY    41  40  96 SE9       29.73F
RICHMOND       LGT RAIN  45  43  93 NE6       29.76F FOG
RALEIGH        LGT RAIN  52  52 100 NE6       29.68F FOG

$$

ANZ530>537-260000-
MARINE OBSERVATIONS

STATION/POSITION TIME  TEMP    WIND        PRES
                       AIR SEA DIR/SP/G
                 (UTC) (F)     (DEG/KT/KT) (MB)
THOMAS PT LIGHT  2300   48 52  220/ 14/ 15 1009.0R
BALT KEY BRIDGE  2200   50     110/  6/  7 1007.9F
COVE POINT       2200   46     240/  5/  7 1009.4F
LEWISETTA        2200   45 56              1008.6F
SOLOMONS ISLAND  2200      55                N/A
PINEY POINT      2200          170/  5/  6   N/A

$$



USA.gov is the U.S. government's official web portal to all federal, state and local government web resources and services.